{"data":{"norad_id":67388,"intl_designator":"2026-004AB","name":"LEMUR-2-HCS-BAZUS","alt_names":[],"object_type":"PAYLOAD","status":"ACTIVE","operator":null,"country":"US","launch_date":"2026-01-11","launch_site_code":"AFWTR","launch_vehicle":null,"mission":null,"orbit_class":"UNKNOWN","rcs_meters":null,"size_class":null,"mass_kg":null,"dimensions":null,"purposes":["earth_obs"],"wikipedia_slug":null,"has_3d_model":false,"image_url":null,"decayed_at":null,"tle_current":{"epoch":"2026-09-19T22:51:45.179136Z","epoch_age_seconds":61718,"freshness":"FRESH","line1":"1 67388U 26004AB  26262.95260624  .00003024  00000+0  31386-3 0  9998","line2":"2 67388  97.8090 260.8235 0003988 115.2420 244.9212 14.90693405 37427","mean_motion":14.90693405,"eccentricity":0.0003988,"inclination_deg":97.809,"raan_deg":260.8235,"arg_perigee_deg":115.242,"mean_anomaly_deg":244.9212,"bstar":0.00031386,"rev_number":3742,"period_min":96.599340626988,"perigee_km":592.9909944407,"apogee_km":598.55338441019,"semimajor_km":6973.9091894254,"source":"CELESTRAK","updated_at":"2026-09-20T09:00:34.917102Z"}}}